Theta_e
320 325 331 334 341 342 350 350 347 345 345 344 345 342 339 343 345 343 343 341 341 348 346 344 343 345 346 343 343 344 344 344 345 342 342 341 340 338 337 336 336 337 337 337 338 339 339 339 341
322 333 332 327 337 345 346 346 348 343 341 344 347 348 345 349 348 343 342 342 346 346 345 343 344 345 344 337 342 344 341 341 340 340 339 338 337 336 335 335 334 334 334 333 333 334 336 338 339
325 328 318 326 330 339 342 344 346 346 345 348 352 347 346 347 346 343 343 345 348 346 345 343 343 341 342 337 338 339 339 339 338 336 336 336 336 335 335 334 334 333 333 331 331 330 331 332 335
323 319 318 326 330 329 334 343 344 347 345 347 349 352 346 347 345 344 343 346 347 346 345 346 339 338 340 337 336 339 338 338 336 335 335 335 335 335 334 334 334 332 332 331 333 333 333 334 334
319 317 324 327 328 326 333 341 342 343 345 346 349 351 349 346 345 345 343 346 346 346 345 345 337 339 340 341 336 339 337 337 335 335 335 334 333 332 332 332 331 331 332 334 336 335 334 335 336
314 315 323 326 326 326 340 340 341 348 347 349 348 347 348 344 345 344 342 344 344 345 344 343 340 338 340 342 337 337 337 337 336 336 335 334 332 331 330 329 332 335 338 338 338 338 337 338 338
312 317 321 322 325 326 338 339 343 345 347 350 347 350 345 344 343 343 341 341 345 344 344 342 344 344 345 345 339 337 336 337 336 335 334 333 331 329 328 334 338 339 338 337 337 336 336 336 336
308 311 316 318 320 323 328 344 342 342 346 345 346 352 346 339 342 341 341 340 344 344 343 341 344 345 345 345 340 338 336 336 335 335 333 332 329 328 332 338 339 338 337 336 337 339 341 340 341
308 309 311 316 317 319 340 342 343 343 343 342 343 344 341 339 341 341 341 342 343 344 343 340 344 345 344 344 341 339 337 336 335 334 333 331 328 329 337 339 339 339 338 339 341 341 340 339 338
309 308 310 312 314 316 334 339 344 348 345 343 341 343 342 341 341 341 340 340 341 342 343 341 343 345 344 343 341 340 338 335 335 334 333 330 329 334 337 340 341 340 339 340 342 342 339 339 340
307 309 309 311 312 313 315 334 342 348 349 346 342 348 344 343 343 342 340 339 339 340 341 342 343 344 344 343 340 340 338 336 334 334 332 329 331 336 340 341 342 342 341 342 342 340 339 340 341
311 308 308 310 310 311 310 328 346 346 339 343 339 345 344 342 342 342 340 339 339 340 340 340 343 344 344 342 341 340 338 336 335 334 331 332 334 336 340 341 341 343 341 343 340 339 338 338 340
309 310 307 308 308 308 317 330 337 344 340 342 339 344 344 341 341 342 341 339 339 339 340 340 342 344 344 343 342 341 340 337 335 333 331 331 333 340 340 339 341 343 343 340 338 338 337 337 336
310 309 310 309 309 308 318 340 344 333 341 342 339 337 339 338 340 342 341 341 340 339 339 338 341 343 343 342 342 340 339 337 335 333 331 331 339 341 339 338 339 342 339 337 337 337 337 336 335
311 311 310 308 310 314 340 340 348 336 344 344 342 337 335 336 340 341 341 341 340 339 338 338 337 342 342 342 341 340 337 336 334 333 331 336 342 342 341 340 341 339 337 336 336 336 336 335 332
311 308 310 309 311 321 320 314 319 339 347 345 341 340 338 336 339 341 341 341 340 339 338 338 339 339 341 341 341 340 338 335 335 335 333 338 342 343 342 341 339 338 337 336 335 334 333 330 327
305 310 311 310 312 315 320 312 312 341 346 346 343 341 340 339 338 338 340 341 340 339 337 337 338 337 336 340 339 338 336 336 335 334 335 341 342 341 342 341 340 338 337 335 333 331 328 325 321
310 310 309 310 311 312 311 327 331 340 341 338 336 336 336 335 335 337 337 339 339 338 338 336 336 336 335 337 337 336 337 335 335 335 339 341 341 340 339 338 337 335 334 332 329 328 326 321 317
310 312 314 315 315 325 332 330 329 330 332 334 330 330 332 335 336 335 333 337 338 338 338 337 336 335 335 335 336 337 338 336 337 337 337 338 338 337 335 335 333 331 329 329 326 324 321 315 322
317 321 321 321 322 326 328 328 326 325 327 328 329 329 330 330 331 336 336 334 335 334 335 335 336 335 335 334 336 336 336 334 335 333 332 332 332 331 330 329 328 327 325 323 320 320 314 321 328
321 317 319 322 322 320 321 328 327 325 324 324 324 326 327 330 332 332 334 336 335 334 333 335 336 337 336 336 335 333 330 326 323 323 325 325 325 326 325 323 321 320 319 318 317 317 317 312 323
319 315 315 320 324 321 317 326 327 326 324 323 323 322 324 328 330 331 334 336 336 336 335 335 337 338 336 334 331 332 327 321 321 323 322 321 321 321 319 319 318 317 316 315 316 315 316 310 314
311 310 310 319 324 320 321 323 328 325 325 323 322 321 323 326 328 327 329 336 336 337 337 337 338 338 335 331 334 330 325 324 323 321 319 318 317 318 316 316 315 315 315 310 310 311 314 312 311
309 314 316 320 314 322 323 323 329 327 326 321 321 321 324 324 325 325 327 333 334 335 336 338 337 338 335 329 326 327 323 320 318 317 316 315 315 314 313 312 310 308 308 308 308 309 310 310 310
308 308 309 311 322 326 321 326 326 325 320 319 320 322 322 322 321 323 323 329 333 333 337 335 332 327 326 325 324 324 320 322 319 315 314 311 310 309 308 308 307 306 307 307 307 306 307 307 308
309 313 310 310 315 312 318 330 326 320 317 318 319 320 320 319 319 319 321 320 323 323 322 322 318 316 316 317 316 318 316 315 315 315 313 311 310 309 308 308 306 305 305 306 305 305 305 306 306
313 314 312 315 319 320 318 327 322 319 318 319 320 320 320 319 318 319 319 318 317 317 316 316 316 315 317 316 315 314 312 310 312 312 310 309 309 308 307 305 306 305 304 305 304 304 304 304 304
314 313 313 310 319 325 320 328 326 320 318 316 318 319 320 318 317 317 315 318 317 317 317 317 317 317 317 317 316 315 315 314 312 310 309 308 307 307 306 305 304 304 304 304 303 303 303 303 302
313 314 312 309 316 319 320 317 320 319 315 315 317 317 317 316 315 314 313 312 314 314 315 314 315 317 317 317 316 316 314 312 311 310 309 308 307 306 305 304 304 304 304 303 303 302 302 302 302
315 316 312 311 311 313 314 316 315 315 314 313 314 316 316 315 313 312 311 311 310 310 310 309 309 310 310 311 311 311 311 310 310 309 308 306 305 304 304 304 303 303 303 302 302 301 301 301 301
Wind_Speed
11 12 12 3 3 4 1 2 2 3 2 2 1 2 3 3 2 3 3 12 26 31 29 27 27 26 25 25 27 26 26 26 26 26 25 24 22 20 19 17 17 16 15 15 14 13 13 13 13
17 14 4 2 4 2 4 2 4 4 2 3 4 3 3 2 1 8 9 17 32 31 30 28 26 26 26 27 27 26 28 28 27 25 24 22 21 19 17 16 16 15 14 13 13 12 12 12 11
17 5 3 4 3 4 3 4 5 3 5 2 2 4 3 2 2 13 8 25 31 30 28 27 27 27 27 28 28 27 27 26 24 23 22 21 19 17 16 14 14 13 12 11 11 11 11 10 10
7 4 4 4 5 5 5 5 6 3 2 1 1 5 4 5 9 9 23 30 31 30 28 25 26 28 28 27 27 27 25 24 22 20 19 18 17 15 14 12 11 11 10 9 9 10 9 9 8
3 3 4 2 5 5 2 1 9 5 2 2 2 1 4 3 12 18 27 26 25 29 28 24 27 29 28 26 27 26 24 23 21 18 17 16 15 13 11 10 9 8 7 6 6 7 7 6 5
4 3 3 4 5 4 1 5 6 2 1 4 1 5 2 8 18 27 31 28 20 30 29 26 27 29 29 26 27 27 25 22 19 17 15 13 12 11 9 8 7 6 5 5 5 6 6 6 5
6 4 5 5 3 3 4 5 4 6 4 3 2 3 4 7 17 24 34 32 26 30 28 28 27 27 26 26 27 26 25 23 20 17 15 13 12 10 9 7 6 6 6 6 8 8 7 6 5
5 4 5 4 4 5 2 4 2 4 4 1 1 6 5 9 24 22 29 31 30 31 29 30 30 28 27 27 27 26 25 23 20 17 15 13 11 10 8 7 6 7 8 8 8 8 7 6 5
4 4 3 5 6 5 2 5 1 1 5 2 4 4 4 20 28 31 28 26 29 28 31 33 32 31 30 29 28 27 25 23 20 18 15 13 12 10 9 7 6 6 7 7 6 7 8 8 10
4 4 10 7 6 5 4 6 8 5 4 4 4 7 11 22 35 35 32 29 29 30 33 36 35 33 31 31 29 28 26 25 22 20 17 15 12 10 9 7 6 6 6 5 3 7 10 11 11
5 6 6 7 8 5 3 4 5 7 6 10 18 17 16 24 24 21 21 32 39 37 37 39 39 36 34 33 31 29 27 26 24 21 19 16 14 12 10 9 7 5 6 6 8 12 11 10 8
2 7 7 5 9 6 6 5 6 9 16 8 14 22 20 20 20 22 26 26 26 28 35 38 39 38 37 34 33 31 29 27 26 24 20 18 15 13 11 11 9 6 5 9 12 10 9 8 8
5 5 7 10 7 8 6 10 5 11 17 4 8 12 17 16 10 21 26 31 28 29 30 34 41 38 38 35 34 32 31 29 27 24 22 20 17 14 12 11 10 8 9 12 13 10 6 5 5
6 4 5 7 4 5 7 1 4 12 9 8 12 15 15 15 15 21 28 30 32 32 36 40 38 39 40 39 36 34 32 30 27 25 23 20 17 15 13 13 13 12 11 13 11 8 5 2 1
1 3 5 7 4 6 7 1 9 11 5 9 12 13 14 8 17 22 29 29 33 33 37 42 46 42 41 41 38 35 33 31 28 27 25 21 18 15 14 14 16 16 15 12 9 7 4 4 4
1 4 3 6 4 3 4 8 11 6 7 12 8 10 10 7 12 22 26 26 29 32 35 38 39 43 42 40 38 35 33 31 29 26 24 21 20 18 17 16 17 17 15 11 9 7 7 7 7
6 0 2 7 1 5 3 9 10 2 7 5 6 7 6 2 6 13 22 26 28 30 30 36 39 40 44 41 38 36 32 30 29 26 25 23 22 21 21 20 19 17 15 12 10 10 9 8 9
2 3 4 4 5 2 3 11 15 10 11 9 11 10 9 8 6 13 19 25 27 32 35 39 43 42 43 39 36 32 28 29 28 28 28 26 25 23 21 20 19 17 15 13 11 11 11 9 11
3 3 3 4 4 7 8 15 17 16 14 14 13 12 12 13 9 14 14 25 28 33 39 39 35 35 35 36 34 30 29 28 29 28 27 26 26 23 21 19 17 15 14 12 11 12 11 11 19
3 3 5 5 4 10 9 12 11 17 11 10 12 12 12 12 11 9 14 9 9 21 22 26 37 38 41 41 37 31 35 32 33 31 28 25 23 21 18 16 15 13 12 11 11 13 13 14 21
2 4 4 5 3 5 4 6 8 9 17 18 16 11 11 12 12 7 5 7 2 4 14 19 25 41 49 46 39 28 31 30 27 26 25 24 21 19 17 15 13 12 11 10 10 13 13 12 19
2 1 3 7 1 2 2 3 3 6 9 15 14 14 15 17 16 11 9 5 8 7 7 13 19 23 24 34 34 44 39 33 32 37 30 27 22 19 17 15 12 9 8 8 9 12 17 15 21
5 10 7 5 4 6 7 5 2 4 7 15 14 16 16 17 16 18 17 16 20 18 14 18 20 23 27 35 42 41 33 34 42 38 33 27 23 20 17 14 12 9 6 6 9 13 17 17 17
7 4 5 5 2 4 5 2 3 4 5 7 9 13 17 19 19 18 30 13 6 8 14 16 28 30 36 33 29 33 38 40 40 37 35 32 28 24 19 16 14 11 9 7 8 8 12 15 13
10 7 4 5 5 2 3 4 1 2 3 5 10 13 13 15 16 17 18 17 7 3 5 11 9 5 7 15 24 28 33 45 47 43 38 35 32 27 23 18 14 16 15 11 10 11 11 12 11
4 4 5 2 1 5 6 3 4 3 5 5 6 8 12 17 15 16 16 20 20 22 20 22 28 32 26 17 18 6 19 20 33 40 41 36 33 28 22 19 18 16 16 13 13 15 17 17 16
5 5 2 5 2 1 2 2 6 1 6 5 7 11 14 15 15 13 18 16 20 29 28 29 31 30 29 26 20 17 23 21 13 8 12 31 33 30 26 21 20 17 15 16 18 19 20 19 19
5 1 3 4 1 2 4 3 4 5 8 4 8 11 9 9 11 11 14 15 13 15 22 27 25 24 23 19 17 21 21 12 15 22 17 16 24 27 25 21 18 21 18 18 19 20 20 21 21
4 3 5 4 3 3 2 5 1 3 3 6 6 5 7 9 9 8 10 13 12 12 9 12 17 20 19 17 16 15 15 18 24 20 22 13 16 17 20 23 20 22 21 19 22 20 19 21 20
0 3 4 4 2 1 3 5 2 4 2 4 6 5 6 3 5 6 9 9 9 9 9 9 13 20 19 20 20 20 21 23 25 21 19 19 18 17 17 20 19 21 22 20 21 22 20 21 20
Wind_Direction
156 141 136 76 52 61 260 259 259 270 284 207 164 126 151 98 168 215 106 169 164 160 164 161 153 150 147 146 144 141 141 142 139 139 138 136 134 132 129 125 121 116 114 112 112 116 120 117 114
150 136 102 79 90 53 283 227 226 237 213 170 173 113 101 104 102 117 130 163 165 161 165 163 157 154 151 151 149 147 147 145 143 141 141 140 139 136 132 127 123 119 116 115 116 118 119 121 121
144 131 89 96 112 176 196 226 189 287 298 170 50 356 113 140 82 151 146 161 162 162 169 164 160 158 156 155 154 152 151 149 146 144 143 142 140 138 135 131 127 123 120 117 117 119 121 123 127
152 43 37 100 226 248 199 158 187 196 248 172 99 109 78 32 142 159 153 164 164 165 171 168 165 162 162 158 158 157 156 153 151 148 146 144 144 144 142 136 132 125 120 119 117 120 124 130 136
82 60 89 146 253 261 236 218 163 192 274 8 35 179 83 16 131 151 154 161 159 169 172 175 169 167 165 163 162 162 162 159 156 154 150 148 148 147 145 139 133 122 117 118 117 119 125 131 139
53 98 95 212 243 251 231 193 175 153 122 339 18 146 128 144 141 153 158 161 165 173 172 178 171 172 169 167 167 168 168 167 163 161 157 154 153 153 151 143 132 118 111 113 111 119 122 127 133
126 97 194 185 236 277 206 185 185 163 148 241 264 145 177 149 157 158 165 170 169 177 178 178 175 174 171 171 173 174 173 173 172 169 165 165 163 159 157 146 131 112 106 111 110 109 110 117 133
115 98 144 209 176 252 189 163 276 143 190 124 249 193 210 164 152 151 158 169 173 180 183 182 181 176 177 176 179 179 179 180 179 178 175 175 173 166 166 156 135 115 112 114 106 100 94 101 152
134 76 178 207 165 239 171 159 259 71 134 244 203 182 192 158 152 150 152 163 176 187 189 188 186 182 182 182 183 183 185 185 186 186 184 185 184 178 175 164 142 121 116 116 114 110 111 99 103
104 134 205 204 201 211 205 180 165 150 167 240 226 225 192 187 170 160 162 167 179 188 195 195 189 188 186 188 186 189 188 189 192 192 190 190 190 188 183 183 165 144 127 114 108 127 111 117 109
168 177 212 233 222 221 200 194 191 146 216 207 208 193 189 190 209 159 170 172 181 186 192 199 193 192 190 191 190 192 194 194 196 197 194 195 196 195 198 198 195 171 142 133 132 134 122 115 119
167 231 184 239 216 168 223 165 201 187 227 227 215 190 190 208 199 162 170 180 183 187 195 199 198 195 195 195 194 195 197 198 200 197 197 197 204 212 217 217 210 203 175 150 147 147 126 114 116
192 248 180 246 254 230 154 215 199 224 233 223 155 181 208 220 190 176 183 178 183 190 198 202 201 199 198 198 200 200 200 201 202 202 201 203 210 220 224 216 205 197 162 154 146 140 129 108 96
204 226 251 275 249 218 180 184 158 252 187 182 174 197 211 217 192 184 184 186 183 194 197 201 207 204 201 201 206 205 204 205 206 206 206 209 215 222 219 211 199 187 168 158 155 149 160 160 139
183 263 304 238 219 190 142 269 229 238 152 181 200 207 227 231 197 194 196 190 187 197 201 201 204 208 207 206 208 211 208 210 212 211 210 211 214 213 209 196 180 176 171 171 169 164 188 196 169
342 57 8 319 360 16 355 265 265 198 170 232 196 218 213 209 208 201 205 203 197 196 200 202 202 204 212 211 214 218 217 218 218 218 214 212 208 198 195 186 180 179 181 184 181 181 185 183 166
13 18 322 331 307 129 171 274 301 65 189 259 344 332 316 341 289 258 215 207 200 201 201 202 204 203 208 214 217 220 221 221 222 218 211 206 200 194 194 191 188 190 196 197 195 188 187 172 145
317 3 306 250 277 6 328 350 344 5 55 25 15 4 348 338 330 292 251 219 211 203 206 208 205 202 206 208 216 218 220 219 219 213 205 202 198 198 196 193 194 196 201 200 194 187 173 162 150
119 152 262 255 290 79 62 41 20 26 35 43 24 10 2 345 336 347 331 219 211 209 205 204 199 197 192 197 198 203 204 205 203 199 195 193 195 198 199 200 199 200 205 205 194 172 164 142 148
81 73 341 291 19 94 71 34 29 36 47 48 29 11 357 343 352 350 8 359 231 214 221 203 198 197 196 198 199 198 200 190 191 189 190 191 193 194 194 201 199 205 208 201 193 183 164 157 157
356 72 319 257 56 67 100 47 2 18 33 22 15 10 360 343 330 329 353 353 21 257 220 222 210 204 204 198 191 188 185 177 174 179 181 182 186 185 191 189 187 189 193 198 192 190 191 174 190
298 93 287 279 42 199 34 180 319 340 0 7 358 356 348 343 337 327 288 190 161 172 237 248 242 234 214 195 183 186 174 168 179 178 178 176 178 177 180 178 177 183 197 210 214 202 201 195 188
251 310 262 242 200 121 348 89 316 16 350 349 342 344 345 346 340 332 304 232 172 169 187 227 229 219 217 204 196 186 177 181 179 176 170 169 167 168 169 169 171 184 198 208 212 208 205 204 195
294 331 21 45 87 71 305 111 345 12 339 334 339 345 347 346 342 338 344 245 257 187 190 217 221 221 214 207 198 189 181 174 167 170 168 167 165 163 166 164 159 155 156 166 177 183 192 194 190
22 33 1 23 22 216 300 60 194 290 19 345 333 341 351 347 347 347 354 352 283 262 167 155 161 114 205 216 208 201 190 181 174 169 169 164 161 157 152 148 145 156 146 153 154 149 140 144 154
349 85 127 169 349 281 341 105 212 200 106 13 341 331 354 357 357 352 356 14 49 55 80 99 80 64 57 58 40 281 185 188 172 171 168 163 158 146 141 137 153 136 131 145 145 138 126 122 118
326 36 192 109 28 30 266 294 263 149 84 8 2 5 3 357 358 3 0 21 61 81 80 85 80 71 63 60 57 61 53 46 75 76 121 146 141 136 131 145 133 115 130 141 141 131 123 120 115
89 218 43 10 110 297 285 231 235 342 340 355 17 11 6 1 359 5 4 6 27 66 94 89 86 96 86 81 66 70 77 97 86 84 90 110 125 127 136 129 124 134 138 141 134 123 120 116 111
3 14 48 111 116 171 291 264 191 235 298 328 345 350 7 0 357 358 7 6 11 26 64 87 105 109 103 106 110 108 119 130 115 132 131 134 126 135 132 135 148 133 141 143 129 124 124 116 113
119 144 118 113 242 179 152 273 191 218 245 311 323 0 9 48 2 357 357 11 33 37 47 71 94 109 121 116 127 135 146 140 131 137 142 139 138 135 139 139 142 140 142 133 126 124 123 119 120